Starlink 33546

operational
NORAD ID: 62287 Int'l Des: 2024-237 Owner: SPXS Country: US Constellation: starlink
LEOCIRCULAR

Über Starlink 33546

Beschreibung wird geladen...

Live-Position

3D-Globus wird geladen...

Nächste Überflüge

Höhenverlauf

Altitude vs Time

uPlot chart will show altitude changes over time

Zweizeiliger Elementsatz

1 62287U 24237W 25258.33676099 .00072821 00000-0 26267-2 0 9993
2 62287 42.9996 126.6890 0000891 275.3076 84.7674 15.27618728 44287
Epoch: 15. Sept. 2025 • Age: 16 hours

Aktueller Status

Höhe 482.3 km
Geschwindigkeit 7.63 km/s
Subsatellitenpunkt 2.06°N, 62.77°W
Startdatum 8. Dez. 2024
Alter 0.7 years
Typ internet

Technische Details

Klassifizierung Payload
Masse 530.00 kg
Trockenmasse 500.00 kg
Gesamtmasse 530.00 kg
Länge 0.30 m
Durchmesser 4.10 m
Spannweite 29.00 m
Form Box + pan
Hersteller SPXS
Bus-Typ Starlink V2MO
Phasenstatus In Orbit
Besitzer/Staat SPXS/US

Große Konstellationen

Loading constellations...